Redmond, OR

9:48 AM PDT on October 14, 2019 (GMT -0700)
Roberts Field Airport

Weather History for KRDM - September, 2019

Change the Weather History Date:

Monday, September 16, 2019

  Actual Average Record
Temperature  
Mean Temperature 52 °F 57 °F  
Max Temperature 62 °F 76 °F 97 °F (2008)
Min Temperature 41 °F 38 °F 25 °F (2006)
Degree Days  
Heating Degree Days 13 8  
Month to date heating degree days 44 104  
Since 1 July heating degree days 91 253  
Cooling Degree Days 0 0  
Month to date cooling degree days 37 14  
Year to date cooling degree days 293 220  
Growing Degree Days 2 (Base 50)    
Moisture  
Dew Point 43 °F    
Average Humidity 70    
Maximum Humidity 93    
Minimum Humidity 46    
Precipitation  
Precipitation 0.07 in 0.01 in 0.29 in (1954)
Month to date precipitation 0.80 0.21  
Year to date precipitation 8.26 5.94  
Sea Level Pressure  
Sea Level Pressure 29.84 in    
Wind  
Wind Speed 5 mph (WSW)    
Max Wind Speed 22 mph    
Max Gust Speed 27 mph    
Visibility 10 miles    
Events Rain    
T = Trace of Precipitation, MM = Missing Value Source: NWS Daily Summary

Daily Weather History Graph

Daily Weather History Graph

Search for Another Location

Airport or City:

Astronomy

Sep. 16, 2019 Rise Set
Actual Time 6:44 AM PDT 7:13 PM PDT
Civil Twilight 6:15 AM PDT 7:42 PM PDT
Nautical Twilight 5:41 AM PDT 8:16 PM PDT
Astronomical Twilight 5:05 AM PDT 8:52 PM PDT
Moon 8:46 PM PDT (9/16) 9:00 AM PDT (9/16)
Length of Visible Light 13h 26m
Length of Day
12h 28m
Waning Gibbous, 94% of the Moon is Illuminated
Sep 16
Waning Gibbous
Sep 21
Last Quarter
Sep 28
New
Oct 5
First Quarter
Oct 13
Full

Hourly Weather History & Observations

Time (PDT) Temp. Windchill Dew Point Humidity Pressure Visibility Wind Dir Wind Speed Gust Speed Precip Events Conditions
12:56 AM 51.1 °F - 46.9 °F 86% 29.76 in 9.0 mi SSE 5.8 mph - 0.03 in Rain Light Rain
1:56 AM 51.1 °F - 46.9 °F 86% 29.75 in 10.0 mi SSE 4.6 mph - 0.01 in   Overcast
2:56 AM 50.0 °F - 46.9 °F 89% 29.77 in 10.0 mi South 5.8 mph - N/A   Overcast
3:56 AM 51.1 °F - 46.9 °F 86% 29.77 in 10.0 mi SW 5.8 mph - N/A   Overcast
4:56 AM 50.0 °F - 48.0 °F 93% 29.77 in 10.0 mi Calm Calm - N/A   Overcast
5:56 AM 50.0 °F - 46.9 °F 89% 29.79 in 10.0 mi South 4.6 mph - N/A   Overcast
6:56 AM 50.0 °F - 46.9 °F 89% 29.80 in 10.0 mi Calm Calm - N/A   Mostly Cloudy
7:56 AM 51.1 °F - 46.9 °F 86% 29.82 in 10.0 mi Calm Calm - N/A   Overcast
8:56 AM 53.1 °F - 43.0 °F 69% 29.81 in 10.0 mi Calm Calm - N/A   Overcast
9:56 AM 53.1 °F - 43.0 °F 69% 29.83 in 10.0 mi NW 6.9 mph - N/A   Mostly Cloudy
10:33 AM 54.0 °F - 43.0 °F 66% 29.86 in 10.0 mi Calm Calm - N/A   Overcast
10:56 AM 54.0 °F - 43.0 °F 66% 29.83 in 10.0 mi Calm Calm - N/A   Overcast
11:56 AM 55.0 °F - 43.0 °F 64% 29.83 in 10.0 mi West 5.8 mph - N/A   Mostly Cloudy
12:56 PM 61.0 °F - 42.1 °F 50% 29.82 in 10.0 mi West 4.6 mph - N/A   Mostly Cloudy
1:56 PM 55.9 °F - 46.9 °F 72% 29.83 in 10.0 mi ENE 5.8 mph - 0.07 in   Mostly Cloudy
2:56 PM 57.0 °F - 41.0 °F 55% 29.85 in 10.0 mi Variable 5.8 mph - N/A   Overcast
3:56 PM 60.1 °F - 43.0 °F 53% 29.84 in 10.0 mi Variable 4.6 mph - 0.00 in   Mostly Cloudy
4:56 PM 61.0 °F - 39.0 °F 44% 29.84 in 10.0 mi WNW 12.7 mph - N/A   Scattered Clouds
5:56 PM 57.0 °F - 37.9 °F 49% 29.87 in 10.0 mi WNW 13.8 mph 24.2 mph N/A   Scattered Clouds
6:56 PM 55.0 °F - 39.0 °F 55% 29.89 in 10.0 mi NW 13.8 mph - N/A   Overcast
7:56 PM 53.1 °F - 39.0 °F 59% 29.91 in 10.0 mi NW 10.4 mph - N/A   Overcast
8:56 PM 51.1 °F - 39.0 °F 63% 29.93 in 10.0 mi WNW 3.5 mph - N/A   Clear
9:56 PM 48.0 °F - 37.9 °F 68% 29.94 in 10.0 mi SSE 3.5 mph - N/A   Clear
10:56 PM 42.1 °F 37.7 °F 36.0 °F 79% 29.95 in 10.0 mi South 6.9 mph - N/A   Clear
11:56 PM 42.1 °F 39.2 °F 37.0 °F 82% 29.95 in 10.0 mi SE 4.6 mph - N/A   Clear